Location: Oulou
(10.7667°N, 12.5167°W)
Time: 22:45:12
(UTC+00:00)

FengYun 1-2 T - Pass Details

Date: 20 September 2019
Orbit: 846 x 881 km, 98.7° (Epoch: 14 October)

Event Time Altitude Azimuth Distance (km) Brightness Sun altitude
Rises 19:17:45 0° 161° (SSE) 3,437 7.1 -8.2°
Reaches altitude 10° 19:20:08 10° 158° (SSE) 2,505 6.4 -8.8°
Maximum altitude 19:25:39 66° 77° (ENE) 945 4.2 -10.2°
Drops below altitude 10° 19:31:13 10° 355° (N) 2,524 6.8 -11.5°
Sets 19:33:38 0° 353° (N) 3,465 7.5 -12.1°
